Terminal Aerodrome Forecast
Issued by NWS

Home | Current Version | Previous Version | Text Only | Print | Product List | Glossary On
Versions: 1 2 3 4 5 6 7 8 9 10 11 12 13 14 15 16 17 18 19 20 21 22
693
FTUS41 KOKX 111437 AAA
TAFSWF
TAF AMD
KSWF 111437Z 1115/1218 29020G30KT P6SM BKN050
     FM120300 29012G22KT P6SM BKN040
     FM120700 28009KT P6SM BKN250
     FM121200 26006KT P6SM BKN250
      AMD NOT SKED=

USA.gov is the U.S. government's official web portal to all federal, state and local government web resources and services.